Location: Newark
(7.0858°N, 171.3717°E)
Time: 23:44:09
(UTC+00:00)

Vanguard 2 - Pass Details

Date: 02 December 2020
Orbit: 553 x 2937 km, 32.9° (Epoch: 20 January)

Event Time Altitude Azimuth Distance (km) Brightness Sun altitude
Rises 18:50:57 0° 246° (WSW) 6,359 11.8 3.5°
Reaches altitude 10° 18:55:46 10° 250° (WSW) 5,055 11.3 4.6°
Maximum altitude 19:08:54 54° 323° (NW) 1,985 9.4 7.6°
Drops below altitude 10° 19:16:49 10° 40° (NE) 3,130 10.9 9.4°
Sets 19:19:08 0° 45° (NE) 3,842 11.4 9.9°
